This demonstration page uses our WeatherBlox Daily Observations layout. Learn more.

Left ArrowRight Arrow

Hourly Observations for August 8, 2020

Temp ( °F °C ) Dew Point ( °F °C ) Humidity (%) Winds ( mph kmh ) Pressure ( in mb ) Visibility ( mi km ) Precip ( " mm )
12:51 am 00:51 Clear 80 26.7 48 8.9 33 33 ESE 7 11 29.84 1011 10 16.0934 0 0
1:51 am 01:51 Clear 80 26.7 49 9.4 34 34 SE 7 11 29.84 1010 10 16.0934 0 0
2:51 am 02:51 Clear 77 25 49 9.4 37 37 SSE 6 9 29.84 1011 10 16.0934 0 0
3:51 am 03:51 Clear 77 25 48 8.9 36 36 E 7 11 29.84 1011 10 16.0934 0 0
4:51 am 04:51 Clear 76 24.4 49 9.4 39 39 E 7 11 29.85 1011 10 16.0934 0 0
5:51 am 05:51 Sunny 78 25.6 49 9.4 36 36 E 6 9 29.86 1011 10 16.0934 0 0
6:51 am 06:51 Sunny 82 27.8 50 10 33 33 ESE 8 13 29.88 1012 10 16.0934 0 0
7:51 am 07:51 Sunny 83 28.3 51 10.6 33 33 WNW 5 7 29.9 1012 10 16.0934 0 0
8:51 am 08:51 Sunny 92 33.3 51 10.6 25 25 E 9 15 29.88 1012 10 16.0934 0 0
9:51 am 09:51 Sunny 94 34.4 51 10.6 23 23 ESE 5 7 29.87 1012 10 16.0934 0 0
10:51 am 10:51 Sunny 96 35.6 50 10 21 21 SSE 5 7 29.86 1011 10 16.0934 0 0
11:51 am 11:51 Sunny 98 36.7 50 10 20 20 VRB 3 6 29.83 1010 10 16.0934 0 0
12:51 pm 12:51 Sunny 101 38.3 47 8.3 16 16 undefined N/A 29.81 1009 10 16.0934 0 0
1:51 pm 13:51 Sunny 103 39.4 46 7.8 15 15 VRB 6 9 29.78 1009 10 16.0934 0 0
2:51 pm 14:51 Sunny 100 37.8 46 7.8 16 16 W 16 26 29.77 1008 10 16.0934 0 0
3:51 pm 15:51 Sunny 102 38.9 43 6.1 13 13 SSW 5 7 29.74 1007 10 16.0934 0 0
4:51 pm 16:51 Sunny 102 38.9 47 8.3 15 15 W 6 9 29.73 1007 10 16.0934 0 0
5:51 pm 17:51 Sunny 102 38.9 47 8.3 15 15 NW 8 13 29.72 1007 10 16.0934 0 0
6:51 pm 18:51 Sunny 100 37.8 46 7.8 16 16 W 10 17 29.73 1007 10 16.0934 0 0
7:51 pm 19:51 Clear 97 36.1 46 7.8 17 17 WNW 6 9 29.74 1007 10 16.0934 0 0
8:51 pm 20:51 Clear 94 34.4 48 8.9 21 21 NNW 5 7 29.78 1008 10 16.0934 0 0
9:51 pm 21:51 Clear 94 34.4 47 8.3 20 20 NNE 8 13 29.78 1009 10 16.0934 0 0
10:51 pm 22:51 Mostly Clear 90 32.2 48 8.9 24 24 ESE 8 13 29.81 1010 10 16.0934 0 0
11:51 pm 23:51 Clear 88 31.1 48 8.9 25 25 E 6 9 29.81 1010 10 16.0934 0 0

Powered by AerisWeather